Regional Weather Roundup
Issued by NWS

Home | Current Version | Previous Version | Text Only | Print | Product List | Glossary On
Versions: 1 2 3 4 5 6 7 8 9 10 11 12 13 14 15 16 17 18 19 20 21 22 23 24 25 26 27
000
ASUS44 KLIX 261114
RWRLA
LOUISIANA WEATHER ROUNDUP
NATIONAL WEATHER SERVICE NEW ORLEANS LA
600 AM CDT MON JUN 26 2017

NOTE: "FAIR" INDICATES FEW OR NO CLOUDS BELOW 12,000 FEET WITH NO
      SIGNIFICANT WEATHER AND/OR OBSTRUCTIONS TO VISIBILITY.
      SKY/WX - SKY CONDITION AND SIGNIFICANT WEATHER.
      TMP - AIR TEMPERATURE.    DP   - DEWPOINT TEMPERATURE.
      RH  - RELATIVE HUMIDITY.  PRES - PRESSURE.
      HX  - HEAT INDEX.         WCI  - WIND CHILL INDEX.

*  THESE STATIONS ARE NOT NWS OR FAA STATIONS AND ARE NOT UNDER
   NWS QUALITY CONTROL.

LAZ040-048-061>063-065-066-069-261200-
SOUTHEAST LOUISIANA

CITY           SKY/WX    TMP DP  RH WIND       PRES   REMARKS
N.O. INTL ARPT PTCLDY    76  70  82 NE6       30.09F
N.O. LAKEFRONT CLEAR     76  69  79 E13       30.10S
N.O. DOWNTOWN*   N/A     75  69  81 NE9         N/A
RESERVE*       FAIR      75  71  87 NE5       30.10S
SLIDELL        PTCLDY    70  67  90 N6        30.10S
BATON ROUGE    PTCLDY    69  63  81 NE5       30.12R
BOOTHVILLE     PTCLDY    79  76  90 E5        30.09R
BELLE CHASSE   LGT RAIN N/A N/A N/A NE5       30.09S
BOGALUSA*      FAIR      67  63  85 CALM      30.14S
GALLIANO*      CLOUDY    74  71  91 CALM      30.08S
NEW ROADS*       N/A     69  62  78 CALM      30.13S
GONZALES*      FAIR      71  67  87 CALM      30.10S
HAMMOND*       PTCLDY    68  61  77 N3        30.12S
HOUMA*         CLEAR     73  73 100 CALM      30.09
PORT FOURCHON* SUNNY    N/A N/A N/A NE8       30.08R

$$

LAZ041-044-053-054-261200-
SOUTHWEST LOUISIANA

CITY           SKY/WX    TMP DP  RH WIND       PRES   REMARKS
LAKE CHARLES   CLOUDY    74  73  97 NE7       30.10S
LAFAYETTE      CLOUDY    73  69  87 N5        30.11S
PATTERSON      PTCLDY    73  72  96 NE6       30.10S
SALT POINT       N/A     74  72  93 CALM      30.07S
NEW IBERIA     MOCLDY    73  68  84 NE6       30.11R
CHENAULT AIRPK MOCLDY    73  70  88 NE7       30.12S

$$

LAZ027-028-261200-
CENTRAL LOUISIANA

CITY           SKY/WX    TMP DP  RH WIND       PRES   REMARKS
FORT POLK      CLOUDY    70  66  85 E3        30.12S
ALEXANDRIA INT CLOUDY    67  64  90 CALM      30.13R
ALEXANDRIA     CLOUDY    66  65  96 CALM      30.14S

$$

LAZ001-002-261200-
NORTHWEST LOUISIANA

CITY           SKY/WX    TMP DP  RH WIND       PRES   REMARKS
SHREVEPORT     CLOUDY    68  64  87 E5        30.14S
BARKSDALE AFB  CLOUDY    65  61  85 NE6       30.14S
DTN SHREVEPORT CLOUDY    68  63  84 CALM      30.15S

$$

LAZ014-016-261200-
NORTHEAST LOUISIANA

CITY           SKY/WX    TMP DP  RH WIND       PRES   REMARKS
MONROE         CLEAR     63  62  97 CALM      30.17R
TALLULAH       CLEAR     64  63  96 CALM      30.17R

$$





USA.gov is the U.S. government's official web portal to all federal, state and local government web resources and services.